timestamp,wind_dir_avg,wind_spd_avg,wind_spd_max_dir,wind_spd_gust,battery_voltage,lat,long
2022-12-03 00:04:00+00:00,311.0,5.31,301.0,7.85,12.41,47.59359,-54.27349
2022-12-03 00:14:00+00:00,336.0,3.63,16.0,5.7,12.41,47.59359,-54.27349
2022-12-03 00:24:00+00:00,309.0,5.67,303.0,7.24,12.41,47.59359,-54.27349
2022-12-03 00:34:00+00:00,312.0,4.5,313.0,5.13,12.41,47.59359,-54.27349
2022-12-03 00:44:00+00:00,302.0,4.84,302.0,5.31,12.41,47.59359,-54.27349
2022-12-03 00:54:00+00:00,305.0,4.71,304.0,5.24,12.41,47.59359,-54.27349
2022-12-03 01:04:00+00:00,308.0,5.11,302.0,5.89,12.41,47.59359,-54.27349
2022-12-03 01:14:00+00:00,291.0,4.12,302.0,4.76,12.41,47.59359,-54.27349
2022-12-03 01:24:00+00:00,280.0,4.0,272.0,4.83,12.41,47.59359,-54.27349
2022-12-03 01:34:00+00:00,277.0,9.24,273.0,10.28,12.41,47.59359,-54.27349
2022-12-03 01:44:00+00:00,273.0,5.66,274.0,8.95,12.41,47.59359,-54.27349
2022-12-03 01:54:00+00:00,268.0,5.25,262.0,9.14,12.41,47.59359,-54.27349
2022-12-03 02:04:00+00:00,273.0,9.59,272.0,10.35,12.41,47.59359,-54.27349
2022-12-03 02:14:01+00:00,272.0,9.91,272.0,10.52,12.33,47.59359,-54.27349
2022-12-03 02:24:01+00:00,283.0,10.3,288.0,11.09,12.33,47.59359,-54.27349
2022-12-03 02:34:01+00:00,278.0,9.26,274.0,10.21,12.33,47.59359,-54.27349
2022-12-03 02:44:01+00:00,283.0,9.83,286.0,10.87,12.33,47.59359,-54.27349
2022-12-03 02:54:01+00:00,279.0,9.36,281.0,10.55,12.33,47.59359,-54.27349
2022-12-03 03:04:01+00:00,279.0,9.95,275.0,10.43,12.33,47.59359,-54.27349
2022-12-03 03:14:00+00:00,284.0,9.9,283.0,10.68,12.33,47.59359,-54.27349
2022-12-03 03:24:00+00:00,277.0,7.71,272.0,9.81,12.33,47.59359,-54.27349
2022-12-03 03:34:00+00:00,273.0,9.02,277.0,10.19,12.33,47.59359,-54.27349
2022-12-03 03:44:00+00:00,293.0,5.43,285.0,7.76,12.33,47.59359,-54.27349
2022-12-03 03:54:00+00:00,273.0,8.57,274.0,10.03,12.33,47.59359,-54.27349
2022-12-03 04:04:00+00:00,275.0,8.63,276.0,10.23,12.33,47.59359,-54.27349
2022-12-03 04:14:00+00:00,275.0,7.68,275.0,9.45,12.33,47.59359,-54.27349
2022-12-03 04:24:00+00:00,277.0,8.97,272.0,9.84,12.33,47.59359,-54.27349
2022-12-03 04:34:00+00:00,281.0,9.51,281.0,10.23,12.33,47.59359,-54.27349
2022-12-03 04:44:00+00:00,281.0,8.77,281.0,10.46,12.33,47.59359,-54.27349
2022-12-03 04:54:00+00:00,277.0,9.63,276.0,10.73,12.33,47.59359,-54.27349
2022-12-03 05:04:00+00:00,275.0,9.95,280.0,10.73,12.33,47.59359,-54.27349
2022-12-03 05:14:01+00:00,280.0,10.02,284.0,10.8,12.33,47.59359,-54.27349
2022-12-03 05:24:01+00:00,289.0,7.72,286.0,10.45,12.33,47.59359,-54.27349
2022-12-03 05:34:01+00:00,301.0,7.85,299.0,10.77,12.33,47.59359,-54.27349
2022-12-03 05:44:01+00:00,293.0,6.55,285.0,10.31,12.33,47.59359,-54.27349
2022-12-03 05:54:01+00:00,282.0,9.27,282.0,10.56,12.33,47.59359,-54.27349
2022-12-03 06:04:01+00:00,294.0,8.25,291.0,10.42,12.33,47.59359,-54.27349
2022-12-03 06:14:00+00:00,294.0,10.12,296.0,11.29,12.33,47.59359,-54.27349
2022-12-03 06:24:00+00:00,303.0,7.5,297.0,10.46,12.33,47.59359,-54.27349
2022-12-03 06:34:00+00:00,316.0,5.65,323.0,6.24,12.33,47.59359,-54.27349
2022-12-03 06:44:00+00:00,316.0,6.18,302.0,7.87,12.33,47.59359,-54.27349
2022-12-03 06:54:00+00:00,310.0,5.58,290.0,10.11,12.33,47.59359,-54.27349
2022-12-03 07:04:00+00:00,308.0,5.64,291.0,9.83,12.33,47.59359,-54.27349
2022-12-03 07:14:01+00:00,309.0,5.67,295.0,10.2,12.25,47.59359,-54.27349
2022-12-03 07:24:01+00:00,305.0,7.66,295.0,10.47,12.25,47.59359,-54.27349
2022-12-03 07:34:01+00:00,300.0,6.68,296.0,10.81,12.25,47.59359,-54.27349
2022-12-03 07:44:01+00:00,294.0,7.45,289.0,10.12,12.25,47.59359,-54.27349
2022-12-03 07:54:01+00:00,310.0,5.16,308.0,6.0,12.25,47.59359,-54.27349
2022-12-03 08:04:01+00:00,304.0,4.74,300.0,6.36,12.25,47.59359,-54.27349
2022-12-03 08:14:00+00:00,293.0,6.21,288.0,9.72,12.25,47.59359,-54.27349
2022-12-03 08:24:00+00:00,9.0,2.78,319.0,4.66,12.25,47.59359,-54.27349
2022-12-03 08:34:00+00:00,306.0,4.27,308.0,4.77,12.25,47.59359,-54.27349
2022-12-03 08:44:00+00:00,333.0,2.93,310.0,4.42,12.25,47.59359,-54.27349
2022-12-03 08:54:00+00:00,295.0,1.61,298.0,3.58,12.25,47.59359,-54.27349
2022-12-03 09:04:00+00:00,300.0,5.14,285.0,8.76,12.25,47.59359,-54.27349
2022-12-03 09:14:01+00:00,351.0,2.64,39.0,3.39,12.25,47.59359,-54.27349
2022-12-03 09:24:01+00:00,17.0,2.81,28.0,4.21,12.25,47.59359,-54.27349
2022-12-03 09:34:01+00:00,2.0,4.89,329.0,6.37,12.25,47.59359,-54.27349
2022-12-03 09:44:01+00:00,10.0,2.62,313.0,4.02,12.25,47.59359,-54.27349
2022-12-03 09:54:01+00:00,12.0,4.1,12.0,5.03,12.25,47.59359,-54.27349
2022-12-03 10:04:01+00:00,16.0,2.99,324.0,3.7,12.25,47.59359,-54.27349
2022-12-03 10:14:00+00:00,38.0,2.29,42.0,2.95,12.25,47.59359,-54.27349
2022-12-03 10:24:00+00:00,353.0,4.12,347.0,4.62,12.25,47.59359,-54.27349
2022-12-03 10:34:00+00:00,351.0,2.86,350.0,3.4,12.25,47.59359,-54.27349
2022-12-03 10:44:00+00:00,356.0,3.29,10.0,4.54,12.25,47.59359,-54.27349
2022-12-03 10:54:00+00:00,346.0,1.93,301.0,4.43,12.25,47.59359,-54.27349
2022-12-03 11:04:00+00:00,32.0,1.0,76.0,2.28,12.25,47.59359,-54.27349
2022-12-03 11:14:00+00:00,69.0,0.72,69.0,2.28,12.17,47.59359,-54.27349
2022-12-03 11:24:00+00:00,335.0,1.27,302.0,3.69,12.17,47.59359,-54.27349
2022-12-03 11:34:00+00:00,15.0,1.79,336.0,2.41,12.17,47.59359,-54.27349
2022-12-03 11:44:00+00:00,307.0,2.07,301.0,3.6,12.17,47.59359,-54.27349
2022-12-03 11:54:00+00:00,331.0,0.65,52.0,1.85,12.17,47.59359,-54.27349
2022-12-03 12:04:00+00:00,356.0,2.67,331.0,3.35,12.17,47.59359,-54.27349
2022-12-03 12:14:00+00:00,330.0,1.32,315.0,2.39,12.33,47.59359,-54.27349
2022-12-03 12:24:00+00:00,338.0,2.16,309.0,3.73,12.33,47.59359,-54.27349
2022-12-03 12:34:00+00:00,352.0,1.74,41.0,2.88,12.33,47.59359,-54.27349
2022-12-03 12:44:00+00:00,287.0,2.83,279.0,3.84,12.33,47.59359,-54.27349
2022-12-03 12:54:00+00:00,291.0,1.34,291.0,1.67,12.33,47.59359,-54.27349
2022-12-03 13:04:00+00:00,324.0,2.0,319.0,2.63,12.33,47.59359,-54.27349
2022-12-03 13:14:00+00:00,261.0,3.49,257.0,3.8,12.97,47.59359,-54.27349
2022-12-03 13:24:00+00:00,242.0,3.91,231.0,4.65,12.97,47.59359,-54.27349
2022-12-03 13:34:00+00:00,241.0,2.47,250.0,3.23,12.97,47.59359,-54.27349
2022-12-03 13:44:00+00:00,260.0,4.11,259.0,5.05,12.97,47.59359,-54.27349
2022-12-03 13:54:00+00:00,262.0,3.52,265.0,4.24,12.97,47.59359,-54.27349
2022-12-03 14:04:00+00:00,251.0,3.08,244.0,3.68,12.97,47.59359,-54.27349
2022-12-03 15:14:01+00:00,279.0,1.49,282.0,2.62,13.6,47.59359,-54.27349
2022-12-03 15:24:01+00:00,240.0,3.05,235.0,3.79,13.6,47.59359,-54.27349
2022-12-03 15:34:01+00:00,251.0,4.68,256.0,7.86,13.6,47.59359,-54.27349
2022-12-03 15:44:01+00:00,251.0,3.07,244.0,3.67,13.6,47.59359,-54.27349
2022-12-03 15:54:01+00:00,261.0,2.37,264.0,3.41,13.6,47.59359,-54.27349
2022-12-03 16:04:01+00:00,224.0,3.41,211.0,4.84,13.6,47.59359,-54.27349
2022-12-03 16:14:00+00:00,224.0,2.72,225.0,3.93,13.53,47.59359,-54.27349
2022-12-03 16:24:00+00:00,245.0,5.93,255.0,9.86,13.53,47.59359,-54.27349
2022-12-03 16:34:00+00:00,253.0,5.98,261.0,9.14,13.53,47.59359,-54.27349
2022-12-03 16:44:00+00:00,229.0,5.63,253.0,9.47,13.53,47.59359,-54.27349
2022-12-03 16:54:00+00:00,227.0,5.77,238.0,10.08,13.53,47.59359,-54.27349
2022-12-03 17:04:00+00:00,236.0,5.94,244.0,9.38,13.53,47.59359,-54.27349
2022-12-03 17:14:00+00:00,234.0,5.15,251.0,9.22,13.84,47.59359,-54.27349
2022-12-03 17:24:00+00:00,235.0,5.78,250.0,9.87,13.84,47.59359,-54.27349
2022-12-03 17:34:00+00:00,242.0,4.48,236.0,5.11,13.84,47.59359,-54.27349
2022-12-03 17:44:00+00:00,247.0,7.88,242.0,10.03,13.84,47.59359,-54.27349
2022-12-03 17:54:00+00:00,225.0,3.57,232.0,4.48,13.84,47.59359,-54.27349
2022-12-03 18:04:00+00:00,241.0,7.96,244.0,10.77,13.84,47.59359,-54.27349
2022-12-03 18:14:00+00:00,202.0,2.21,232.0,3.67,13.44,47.59359,-54.27349
2022-12-03 18:24:00+00:00,230.0,4.51,227.0,5.06,13.44,47.59359,-54.27349
2022-12-03 18:34:00+00:00,234.0,4.75,253.0,7.74,13.44,47.59359,-54.27349
2022-12-03 18:44:00+00:00,255.0,8.15,258.0,10.1,13.44,47.59359,-54.27349
2022-12-03 18:54:00+00:00,238.0,5.42,251.0,8.91,13.44,47.59359,-54.27349
2022-12-03 19:04:00+00:00,228.0,4.98,248.0,9.28,13.44,47.59359,-54.27349
2022-12-03 19:14:01+00:00,246.0,10.8,244.0,11.65,12.81,47.59359,-54.27349
2022-12-03 19:24:01+00:00,258.0,8.38,257.0,10.82,12.81,47.59359,-54.27349
2022-12-03 19:34:01+00:00,254.0,9.18,252.0,11.35,12.81,47.59359,-54.27349
2022-12-03 19:44:01+00:00,247.0,10.21,250.0,11.13,12.81,47.59359,-54.27349
2022-12-03 19:54:01+00:00,245.0,7.04,254.0,9.7,12.81,47.59359,-54.27349
2022-12-03 20:04:01+00:00,253.0,8.77,250.0,10.41,12.81,47.59359,-54.27349
2022-12-03 20:14:00+00:00,235.0,4.52,244.0,5.29,12.57,47.59359,-54.27349
2022-12-03 20:24:00+00:00,238.0,6.44,249.0,10.14,12.57,47.59359,-54.27349
2022-12-03 20:34:00+00:00,240.0,7.92,243.0,10.96,12.57,47.59359,-54.27349
2022-12-03 20:44:00+00:00,219.0,5.11,220.0,5.73,12.57,47.59359,-54.27349
2022-12-03 20:54:00+00:00,220.0,4.59,217.0,5.23,12.57,47.59359,-54.27349
2022-12-03 21:04:00+00:00,223.0,5.05,221.0,6.13,12.57,47.59359,-54.27349
2022-12-03 21:14:00+00:00,243.0,4.89,256.0,8.03,12.49,47.59359,-54.27349
2022-12-03 21:24:00+00:00,247.0,8.13,252.0,10.09,12.49,47.59359,-54.27349
2022-12-03 21:34:00+00:00,228.0,5.41,239.0,6.37,12.49,47.59359,-54.27349
2022-12-03 21:44:00+00:00,244.0,7.38,248.0,10.62,12.49,47.59359,-54.27349
2022-12-03 21:54:00+00:00,223.0,5.53,220.0,6.43,12.49,47.59359,-54.27349
2022-12-03 22:04:00+00:00,225.0,4.8,218.0,5.62,12.49,47.59359,-54.27349
2022-12-03 22:14:01+00:00,247.0,8.65,255.0,10.41,12.49,47.59359,-54.27349
2022-12-03 22:24:01+00:00,234.0,8.36,242.0,11.24,12.49,47.59359,-54.27349
2022-12-03 22:34:01+00:00,212.0,5.57,202.0,6.71,12.49,47.59359,-54.27349
2022-12-03 22:44:01+00:00,224.0,7.39,237.0,11.53,12.49,47.59359,-54.27349
2022-12-03 22:54:01+00:00,210.0,6.62,204.0,7.34,12.49,47.59359,-54.27349
2022-12-03 23:04:01+00:00,237.0,8.03,245.0,10.65,12.49,47.59359,-54.27349
2022-12-03 23:14:00+00:00,227.0,5.07,232.0,5.81,12.41,47.59359,-54.27349
2022-12-03 23:24:00+00:00,212.0,6.14,208.0,6.82,12.41,47.59359,-54.27349
2022-12-03 23:34:00+00:00,215.0,6.31,213.0,8.05,12.41,47.59359,-54.27349
2022-12-03 23:44:00+00:00,204.0,8.59,201.0,9.63,12.41,47.59359,-54.27349
2022-12-03 23:54:00+00:00,223.0,7.34,239.0,10.51,12.41,47.59359,-54.27349
